Wind_Speed
10 12 13 14 18 22 25 26 24 28 32 32 31 30 34 40 39 43 46 45 43 46
9 11 13 14 15 17 17 20 22 24 25 30 29 28 30 35 38 38 40 40 39 42
8 10 11 11 12 13 14 16 17 18 26 25 28 26 26 30 34 36 37 35 34 36
10 11 12 13 15 17 17 19 21 22 24 23 25 26 23 23 26 28 31 31 31 32
13 14 14 14 15 17 19 21 21 22 21 21 21 19 18 19 20 23 25 27 28 28
13 14 14 14 14 16 16 18 18 19 18 16 15 14 16 16 17 20 22 23 23 22
13 15 15 13 13 13 12 12 10 10 11 13 16 15 13 13 14 16 18 16 13 11
12 12 12 11 10 11 10 9 8 8 10 8 8 11 10 8 7 8 8 7 6 6
9 10 10 11 11 8 7 7 6 5 7 6 5 7 5 4 5 6 7 7 7 7
8 9 9 9 9 10 10 10 10 11 11 10 11 9 10 9 8 7 8 7 5 4
10 11 12 12 14 14 14 14 14 13 11 10 11 8 7 6 5 4 4 3 1 3
14 14 14 16 16 16 15 15 14 13 11 10 10 8 8 5 5 6 5 3 2 3
16 16 17 17 16 16 14 13 12 11 10 10 9 8 6 5 5 5 5 5 6 6
15 15 15 14 13 12 12 11 11 11 10 8 8 7 7 7 6 6 7 7 9 10
Wind_Direction
283 283 278 276 263 256 258 260 263 271 272 267 263 256 252 246 248 245 254 253 243 246
286 280 279 277 276 268 262 266 265 261 268 274 271 264 257 252 249 245 253 255 253 246
296 288 287 290 285 277 273 270 268 268 266 255 266 265 258 258 256 251 250 255 257 251
315 304 295 291 286 284 286 282 275 266 262 271 264 265 264 262 262 260 260 258 255 257
323 316 307 297 292 287 286 285 288 283 273 269 273 269 263 261 262 262 262 258 253 251
328 321 316 304 300 298 297 291 288 278 272 258 253 259 262 260 259 259 255 253 252 250
344 341 331 327 331 327 312 301 289 283 276 283 292 274 258 260 263 263 255 246 240 231
354 350 347 338 333 326 318 313 304 290 280 274 278 269 261 256 252 248 229 195 180 190
357 354 3 3 7 12 14 16 8 15 27 17 32 65 100 112 123 142 160 173 176 191
27 30 37 45 55 61 61 59 67 70 68 83 78 80 90 108 116 154 166 169 173 193
59 64 70 78 81 81 80 76 72 69 77 86 81 73 81 89 102 132 135 102 22 308
80 82 85 83 81 80 78 78 75 73 72 71 75 67 68 62 55 47 44 42 358 326
92 93 89 86 85 84 80 73 70 68 72 81 79 80 68 54 33 12 352 329 312 301
94 91 89 87 84 80 76 72 67 61 64 58 37 29 22 13 355 339 328 322 314 309
Height
1471 1470 1471 1471 1470 1471 1471 1472 1472 1469 1468 1467 1468 1469 1471 1472 1472 1473 1473 1476 1480 1481
1467 1466 1466 1465 1465 1465 1466 1466 1466 1465 1463 1461 1461 1462 1464 1464 1464 1466 1466 1468 1472 1473
1463 1463 1462 1461 1460 1460 1460 1460 1460 1461 1459 1457 1455 1455 1456 1457 1458 1459 1460 1461 1464 1465
1461 1460 1459 1458 1457 1456 1455 1454 1453 1453 1452 1451 1450 1449 1449 1450 1452 1453 1453 1454 1455 1457
1457 1456 1455 1453 1452 1451 1450 1449 1448 1447 1446 1445 1445 1444 1444 1445 1446 1447 1448 1449 1450 1451
1454 1453 1451 1449 1448 1447 1445 1443 1442 1442 1441 1440 1439 1439 1440 1441 1441 1442 1443 1444 1446 1447
1451 1449 1447 1445 1443 1442 1442 1441 1439 1439 1439 1440 1438 1437 1437 1438 1438 1439 1442 1441 1443 1446
1450 1448 1445 1443 1441 1441 1440 1440 1438 1438 1438 1437 1437 1435 1435 1437 1434 1437 1441 1442 1443 1446
1449 1447 1444 1443 1443 1442 1439 1439 1438 1438 1437 1437 1437 1435 1434 1433 1436 1440 1444 1445 1444 1445
1449 1446 1445 1444 1444 1442 1442 1441 1440 1439 1437 1441 1439 1439 1437 1437 1438 1444 1445 1445 1445 1446
1449 1448 1448 1447 1446 1445 1445 1444 1444 1443 1444 1445 1445 1445 1444 1443 1444 1444 1448 1446 1447 1448
1451 1451 1451 1450 1449 1449 1449 1449 1448 1449 1449 1449 1449 1450 1450 1450 1450 1450 1448 1448 1448 1447
1454 1454 1454 1453 1453 1453 1453 1453 1453 1453 1453 1453 1453 1453 1453 1452 1451 1450 1449 1448 1447 1447
1458 1458 1457 1457 1457 1457 1457 1457 1456 1456 1455 1455 1455 1454 1453 1452 1451 1450 1449 1448 1446 1445